Location: Huesca
(42.1318°N, 0.4078°W)
Time: 01:48:03
(UTC+02:00)

PCSat - Visible Passes

Search period start: 19 April 2024 00:00
Search period end: 29 April 2024 00:00
Orbit: 783 x 792 km, 67.0° (Epoch: 18 April)

Date Brightness Start Highest point End Pass type
(mag) Time Alt. Az. Time Alt. Az. Time Alt. Az.
19 Apr 12.9 04:36:21 10° NNE 04:37:43 11° NNE 04:39:04 10° NE visible
19 Apr 10.7 06:17:08 10° NNW 06:22:25 49° NE 06:27:38 10° SE visible
19 Apr 11.4 22:42:25 10° WSW 22:47:14 32° NW 22:52:05 10° NNE visible
20 Apr 11.2 05:45:41 10° NNW 05:50:42 37° NE 05:55:41 10° ESE visible
20 Apr 10.9 22:10:22 10° SW 22:15:29 43° NW 22:20:39 10° NNE visible
21 Apr 11.7 05:14:16 10° N 05:18:56 28° NE 05:23:33 10° ESE visible
21 Apr 10.3 21:38:29 10° SW 21:43:48 58° WNW 21:49:09 10° NNE visible
21 Apr 12.8 23:26:11 10° WNW 23:28:21 12° NW 23:30:31 10° NNW visible
22 Apr 12.1 04:42:57 10° N 04:47:06 22° NE 04:51:15 10° E visible
22 Apr 9.5 06:25:34 10° NW 06:30:57 67° WSW 06:36:17 10° SSE visible
22 Apr 12.6 22:53:13 10° WNW 22:56:24 16° NW 22:59:36 10° N visible
23 Apr 12.4 04:11:43 10° N 04:15:15 17° NE 04:18:45 10° E visible
23 Apr 9.6 05:53:55 10° NNW 05:59:22 89° ENE 06:04:46 10° SSE visible
23 Apr 12.4 22:20:36 10° W 22:24:30 20° NW 22:28:26 10° N visible
24 Apr 12.6 03:40:40 10° N 03:43:19 13° NE 03:45:57 10° ENE visible
24 Apr 10.0 05:22:20 10° NNW 05:27:44 66° ENE 05:33:06 10° SE visible
24 Apr 12.1 21:48:12 10° WSW 21:52:39 25° NW 21:57:08 10° N visible
25 Apr 12.8 03:10:11 10° NNE 03:11:20 11° NNE 03:12:28 10° NE visible
25 Apr 10.5 04:50:48 10° NNW 04:56:03 48° NE 05:01:16 10° SE visible
25 Apr 10.5 06:34:45 10° NW 06:39:05 25° WSW 06:43:25 10° SSW visible
25 Apr 11.6 21:16:01 10° WSW 21:20:52 33° NW 21:25:45 10° NNE visible
26 Apr 11.1 04:19:20 10° NNW 04:24:20 36° NE 04:29:17 10° ESE visible
26 Apr 10.1 06:02:45 10° NW 06:07:37 35° WSW 06:12:28 10° S visible
27 Apr 11.5 03:47:56 10° N 03:52:33 27° NE 03:57:08 10° ESE visible
27 Apr 9.7 05:30:55 10° NW 05:36:08 49° WSW 05:41:18 10° S visible
27 Apr 12.7 21:59:39 10° WNW 22:01:56 13° NW 22:04:13 10° N visible
28 Apr 11.9 03:16:36 10° N 03:20:43 21° NE 03:24:48 10° E visible
28 Apr 9.4 04:59:11 10° NW 05:04:34 69° WSW 05:09:56 10° SSE visible
28 Apr 12.5 21:26:43 10° WNW 21:30:00 16° NW 21:33:16 10° N visible
